[[{"header":{"parameterUnit":"m.s-1","parameterCategory":1,"la1":30.2991,"la2":30.254,"lo1":-89.0895,"lo2":-89.0444,"dy":0.0017,"dx":0.0017,"nx":28,"ny":28,"refTime":"2024-04-21T21:00:00:Z","depth":0,"parameterNumber":2,"parameterNumberName":"U-component_of_WINDS"},"data":[0,0,0,0,0,0,0,0,0,0,0,0,0,0,0,0,0,0,0,0,0,0,0,0,0,0,0,0,0,0,0,0,0,0,0,0,0,0,0,0,0,0,0,0,0,0,0,0,0,0,0,0,0,0,0,0,0,0,-0.302,-0.3019,0,-0.3006,-0.3005,-0.3005,-0.2997,-0.2997,-0.2996,-0.2996,-0.2982,-0.2982,-0.2981,0,0,0,0,0,0,0,0,0,0,0,0,0,-0.3038,-0.3038,-0.302,-0.3019,-0.3019,-0.3006,-0.3005,-0.3005,-0.2997,-0.2996,-0.2996,-0.2996,-0.2982,-0.2982,-0.2981,0,0,0,0,0,0,0,0,0,0,0,0,0,-0.3028,-0.3037,-0.302,-0.3013,-0.3013,-0.3006,-0.3005,-0.3005,-0.2997,-0.2996,-0.2996,-0.2996,-0.2982,-0.2982,-0.2981,-0.298,0,0,-0.298,-0.298,0,0,0,0,0,0,0,0,-0.3028,-0.3027,-0.3014,-0.3014,-0.3013,-0.3003,-0.3007,-0.2997,-0.2997,-0.3003,-0.2996,-0.2996,-0.2989,-0.2988,-0.2985,-0.2979,-0.2978,-0.298,-0.2979,-0.2979,-0.2979,0,0,0,0,0,0,0,-0.3029,-0.3027,-0.3014,-0.3014,-0.3013,-0.3011,-0.3009,-0.3005,-0.2996,-0.3002,-0.3001,-0.3,-0.2989,-0.2986,-0.2985,-0.2978,-0.298,-0.2979,-0.2979,-0.2979,-0.2969,-0.2969,0,0,0,0,0,0,-0.3031,-0.3028,-0.3015,-0.3014,-0.302,-0.3011,-0.3009,-0.3006,-0.2996,-0.2995,-0.3,-0.3,-0.2987,-0.2986,-0.2985,-0.2981,-0.2979,-0.2979,-0.2978,-0.2969,-0.2969,-0.2969,0,0,0,0,0,0,-0.3031,-0.303,-0.3015,-0.3021,-0.3019,-0.301,-0.3007,-0.3006,-0.3003,-0.2995,-0.2993,-0.2999,-0.2987,-0.2985,-0.2981,-0.2981,-0.2978,-0.2978,-0.2969,-0.2969,-0.2969,-0.2976,0,0,0,0,0,0,-0.3032,-0.303,-0.3029,-0.3021,-0.3018,-0.3012,-0.3007,-0.3006,-0.3002,-0.3002,-0.2993,-0.2992,-0.2987,-0.2982,-0.298,-0.298,-0.2978,-0.2968,-0.2969,-0.2969,-0.2975,-0.2976,-0.2976,0,0,0,0,0,-0.3032,-0.3032,-0.3029,-0.3028,-0.3018,-0.3012,-0.301,-0.3004,-0.3003,-0.3002,-0.2996,-0.2992,-0.2981,-0.2981,-0.298,-0.2979,-0.2968,-0.2969,-0.2969,-0.2975,-0.2976,-0.2976,0,0,0,0,0,0,-0.3041,-0.3031,-0.3028,-0.3025,-0.3019,-0.301,-0.3009,-0.3005,-0.3,-0.3,-0.2992,-0.2991,-0.2987,-0.2982,-0.2983,-0.2977,-0.2974,-0.2974,-0.298,-0.298,-0.2981,-0.2982,-0.2977,0,0,0,0,0,-0.3042,-0.3039,-0.303,-0.3028,-0.3025,-0.3018,-0.3015,-0.3011,-0.3005,-0.3002,-0.2997,-0.2991,-0.2986,-0.2983,-0.2978,-0.2975,-0.2972,-0.2974,-0.2974,-0.2975,-0.2974,-0.2972,-0.2972,-0.2969,-0.2969,-0.2969,0,0,-0.3046,-0.304,-0.3038,-0.303,-0.3025,-0.3021,-0.3016,-0.3012,-0.3009,-0.3002,-0.2997,-0.2993,-0.2985,-0.2981,-0.2979,-0.2978,-0.2975,-0.2975,-0.2975,-0.2975,-0.2972,-0.2972,-0.2972,-0.2969,-0.2969,-0.2969,0,0,-0.3049,-0.3045,-0.3042,-0.3037,-0.303,-0.3025,-0.3024,-0.3016,-0.3013,-0.3008,-0.3002,-0.2998,-0.299,-0.2985,-0.2981,-0.2982,-0.2978,-0.298,-0.2983,-0.2981,-0.2981,-0.2981,-0.2981,-0.2981,-0.298,-0.298,-0.298,0,-0.3054,-0.3048,-0.3041,-0.3038,-0.3034,-0.3027,-0.3024,-0.302,-0.3011,-0.3009,-0.3007,-0.2996,-0.2991,-0.2985,-0.2985,-0.2983,-0.2982,-0.2982,-0.2981,-0.2981,-0.2982,-0.2981,-0.2981,-0.2981,-0.2981,-0.2981,-0.2981,0,-0.3054,-0.305,-0.3049,-0.3041,-0.3037,-0.3034,-0.3026,-0.3023,-0.3019,-0.3013,-0.3008,-0.3001,-0.2995,-0.2993,-0.2989,-0.2986,-0.2986,-0.2983,-0.298,-0.2982,-0.2982,-0.2982,-0.2981,-0.2981,-0.2981,-0.2981,0,0,-0.3064,-0.3051,-0.3051,-0.3047,-0.3038,-0.3034,-0.303,-0.3024,-0.3021,-0.3015,-0.3011,-0.3004,-0.3001,-0.2997,-0.2992,-0.299,-0.299,-0.2987,-0.2987,-0.2988,-0.2986,-0.2988,-0.2988,-0.2987,-0.2987,-0.2987,-0.2987,0,-0.3066,-0.3059,-0.3052,-0.3047,-0.3043,-0.3036,-0.3032,-0.3026,-0.3021,-0.3016,-0.3011,-0.3005,-0.3002,-0.2999,-0.2997,-0.2991,-0.299,-0.2991,-0.2983,-0.2983,-0.2985,-0.2988,-0.2991,-0.2991,-0.2987,-0.2987,-0.2987,0,-0.3068,-0.3062,-0.3057,-0.3047,-0.3045,-0.3042,-0.3035,-0.3031,-0.3024,-0.302,-0.3015,-0.301,-0.3005,-0.3002,-0.2995,-0.2996,-0.2992,-0.2988,-0.2988,-0.2987,-0.2985,-0.2987,-0.2991,-0.2991,-0.2986,-0.2986,-0.2986,0,-0.3075,-0.3066,-0.3061,-0.3058,-0.3047,-0.3045,-0.304,-0.3033,-0.3029,-0.3022,-0.302,-0.3013,-0.3009,-0.3004,-0.2997,-0.2996,-0.299,-0.2987,-0.2986,-0.2986,-0.2986,-0.2986,-0.2988,-0.2984,-0.2984,-0.2984,-0.2984,0,-0.3078,-0.3075,-0.3064,-0.3061,-0.3057,-0.3049,-0.3046,-0.304,-0.3034,-0.3029,-0.3023,-0.3019,-0.3009,-0.3004,-0.2998,-0.2993,-0.2991,-0.2988,-0.2986,-0.2988,-0.2989,-0.2986,-0.2986,-0.2983,-0.2983,-0.2984,-0.2984,0,-0.3085,-0.3078,-0.3072,-0.3062,-0.306,-0.3057,-0.3048,-0.3045,-0.3039,-0.3034,-0.3032,-0.3023,-0.3016,-0.3008,-0.2999,-0.2995,-0.299,-0.2988,-0.2993,-0.2992,-0.2992,-0.2992,-0.2992,-0.2992,-0.2988,-0.2988,-0.2988,0,-0.3088,-0.3085,-0.3075,-0.3071,-0.3067,-0.3062,-0.3057,-0.3049,-0.3045,-0.3036,-0.3034,-0.3027,-0.302,-0.301,-0.3002,-0.2995,-0.2993,-0.2993,-0.2992,-0.2993,-0.2992,-0.2992,-0.2992,-0.2994,-0.2994,-0.2994,-0.2994,0,-0.3093,-0.3089,-0.3084,-0.3076,-0.3072,-0.3066,-0.3059,-0.3057,-0.3047,-0.3043,-0.3036,-0.3031,-0.3021,-0.3014,-0.3006,-0.3001,-0.2996,-0.2995,-0.2994,-0.2996,-0.2999,-0.2997,-0.2994,-0.2995,-0.2995,-0.2995,-0.2995,-0.2995,-0.3098,-0.3095,-0.3087,-0.3081,-0.3075,-0.3069,-0.3065,-0.3059,-0.3053,-0.3044,-0.304,-0.3033,-0.3024,-0.3013,-0.3007,-0.3002,-0.3,-0.2999,-0.2999,-0.2999,-0.2999,-0.3,-0.3,-0.3,-0.3,-0.3,-0.3,0,-0.3102,-0.3097,-0.3091,-0.3082,-0.3077,-0.3072,-0.3065,-0.3061,-0.3055,-0.3048,-0.3042,-0.3033,-0.3026,-0.3017,-0.3009,-0.3006,-0.3004,-0.3004,-0.3004,-0.3003,-0.3001,-0.3003,-0.3007,-0.3007,-0.3007,-0.3007,-0.3007,-0.3007,-0.3104,-0.3099,-0.3094,-0.3085,-0.308,-0.3073,-0.3069,-0.3063,-0.3057,-0.3048,-0.3042,-0.3036,-0.3028,-0.302,-0.3012,-0.301,-0.3007,-0.3009,-0.3006,-0.3004,-0.3003,-0.3003,-0.3004,-0.3008,-0.3008,-0.3008,-0.3008,-0.3008]},{"header":{"parameterUnit":"m.s-1","parameterCategory":1,"la1":30.2991,"la2":30.254,"lo1":-89.0895,"lo2":-89.0444,"dy":0.0017,"dx":0.0017,"nx":28,"ny":28,"refTime":"2024-04-21T21:00:00:Z","depth":0,"parameterNumber":3,"parameterNumberName":"V-component_of_WINDS"},"data":[0,0,0,0,0,0,0,0,0,0,0,0,0,0,0,0,0,0,0,0,0,0,0,0,0,0,0,0,0,0,0,0,0,0,0,0,0,0,0,0,0,0,0,0,0,0,0,0,0,0,0,0,0,0,0,0,0,0,-3.5494,-3.5495,0,-3.5572,-3.5573,-3.5574,-3.5603,-3.5602,-3.5602,-3.5602,-3.5677,-3.5679,-3.5681,0,0,0,0,0,0,0,0,0,0,0,0,0,-3.5368,-3.537,-3.5494,-3.5495,-3.5496,-3.5572,-3.5573,-3.5574,-3.5603,-3.5602,-3.5602,-3.5602,-3.5676,-3.5679,-3.5681,0,0,0,0,0,0,0,0,0,0,0,0,0,-3.5432,-3.5371,-3.5494,-3.552,-3.5523,-3.5572,-3.5573,-3.5574,-3.5603,-3.5602,-3.5602,-3.5602,-3.5675,-3.5678,-3.5682,-3.5709,0,0,-3.5692,-3.5693,0,0,0,0,0,0,0,0,-3.5428,-3.5437,-3.5515,-3.5518,-3.5522,-3.5577,-3.5556,-3.5619,-3.5603,-3.5572,-3.5602,-3.5601,-3.5644,-3.565,-3.5665,-3.5713,-3.5716,-3.5692,-3.5694,-3.5696,-3.5696,0,0,0,0,0,0,0,-3.5424,-3.5433,-3.5525,-3.5516,-3.552,-3.5527,-3.5535,-3.5568,-3.5609,-3.5575,-3.5577,-3.5586,-3.5645,-3.5661,-3.5667,-3.5717,-3.5692,-3.5695,-3.5697,-3.5698,-3.5794,-3.5794,0,0,0,0,0,0,-3.5416,-3.543,-3.5522,-3.5527,-3.5473,-3.5529,-3.5539,-3.556,-3.5609,-3.5616,-3.5586,-3.5587,-3.5656,-3.5663,-3.5669,-3.5707,-3.5696,-3.5699,-3.5701,-3.5793,-3.5794,-3.5794,0,0,0,0,0,0,-3.5413,-3.5424,-3.5519,-3.5479,-3.5492,-3.5532,-3.5555,-3.5561,-3.5578,-3.5617,-3.5624,-3.5596,-3.5656,-3.5665,-3.57,-3.5709,-3.57,-3.5703,-3.5792,-3.5793,-3.5794,-3.578,0,0,0,0,0,0,-3.5409,-3.5423,-3.5434,-3.5479,-3.5494,-3.5549,-3.5556,-3.5563,-3.5584,-3.5586,-3.5628,-3.5634,-3.5656,-3.5695,-3.5703,-3.5714,-3.5706,-3.5792,-3.5793,-3.5794,-3.578,-3.578,-3.578,0,0,0,0,0,-3.5405,-3.5425,-3.5434,-3.5445,-3.5509,-3.555,-3.5558,-3.5584,-3.5584,-3.5596,-3.5622,-3.5633,-3.5707,-3.5698,-3.5708,-3.572,-3.5791,-3.5792,-3.5794,-3.5779,-3.578,-3.578,0,0,0,0,0,0,-3.5378,-3.5432,-3.5442,-3.5479,-3.551,-3.5555,-3.557,-3.5584,-3.5614,-3.5614,-3.5644,-3.5653,-3.5686,-3.5706,-3.5695,-3.575,-3.575,-3.5753,-3.5736,-3.5737,-3.5737,-3.5731,-3.5708,0,0,0,0,0,-3.5377,-3.5406,-3.5451,-3.5479,-3.5494,-3.5529,-3.5548,-3.5566,-3.5598,-3.5611,-3.564,-3.567,-3.57,-3.5719,-3.5749,-3.5783,-3.5793,-3.5796,-3.5796,-3.5796,-3.5799,-3.5819,-3.5822,-3.5798,-3.5798,-3.5798,0,0,-3.5373,-3.5407,-3.5423,-3.5474,-3.5501,-3.553,-3.554,-3.557,-3.5593,-3.5615,-3.5651,-3.5673,-3.5709,-3.5744,-3.5761,-3.5762,-3.5807,-3.5798,-3.5797,-3.58,-3.5821,-3.5823,-3.5825,-3.5799,-3.5799,-3.5799,0,0,-3.5383,-3.5411,-3.5438,-3.5465,-3.5506,-3.5529,-3.5536,-3.5579,-3.5596,-3.5632,-3.5651,-3.5677,-3.5728,-3.5753,-3.5773,-3.5795,-3.5807,-3.5804,-3.5806,-3.5826,-3.5828,-3.5829,-3.5838,-3.5841,-3.5806,-3.5806,-3.5806,0,-3.5374,-3.542,-3.545,-3.5481,-3.5503,-3.5527,-3.5555,-3.5579,-3.5626,-3.5641,-3.5641,-3.5708,-3.5733,-3.5776,-3.5781,-3.5796,-3.5804,-3.5799,-3.5825,-3.5827,-3.5829,-3.5838,-3.5841,-3.5805,-3.5805,-3.5805,-3.5805,0,-3.5408,-3.544,-3.5457,-3.5505,-3.5529,-3.5557,-3.5591,-3.5611,-3.5628,-3.5651,-3.5689,-3.5721,-3.5759,-3.577,-3.5784,-3.5814,-3.5814,-3.582,-3.582,-3.5831,-3.584,-3.5843,-3.5805,-3.5805,-3.5805,-3.5805,0,0,-3.5401,-3.5467,-3.5473,-3.5496,-3.5544,-3.5569,-3.5599,-3.5638,-3.5655,-3.5687,-3.5714,-3.5757,-3.5764,-3.5786,-3.5804,-3.5821,-3.5839,-3.5825,-3.5826,-3.5828,-3.5875,-3.5872,-3.5875,-3.5847,-3.5848,-3.5848,-3.5873,0,-3.5418,-3.5475,-3.5504,-3.5548,-3.5578,-3.5603,-3.5629,-3.5661,-3.5684,-3.5713,-3.5737,-3.5769,-3.5774,-3.5788,-3.5806,-3.5833,-3.5849,-3.5831,-3.5871,-3.5872,-3.5863,-3.5879,-3.5875,-3.5897,-3.5876,-3.5877,-3.5877,0,-3.5445,-3.548,-3.5528,-3.5574,-3.5588,-3.5612,-3.5651,-3.5678,-3.5714,-3.573,-3.5756,-3.5774,-3.5807,-3.5805,-3.5851,-3.5838,-3.5856,-3.5872,-3.5873,-3.5878,-3.5876,-3.5886,-3.5904,-3.5907,-3.5883,-3.5882,-3.5882,0,-3.5437,-3.5496,-3.5533,-3.5552,-3.5606,-3.5622,-3.5645,-3.5682,-3.5704,-3.5738,-3.5753,-3.5789,-3.5809,-3.5836,-3.5864,-3.586,-3.5907,-3.5907,-3.5921,-3.592,-3.5929,-3.5929,-3.5951,-3.594,-3.594,-3.5939,-3.5939,0,-3.5454,-3.5482,-3.5531,-3.5553,-3.5587,-3.5619,-3.565,-3.5675,-3.5708,-3.5735,-3.5758,-3.5783,-3.5818,-3.5847,-3.5868,-3.5903,-3.5912,-3.5925,-3.5931,-3.5924,-3.5922,-3.5936,-3.5936,-3.594,-3.594,-3.594,-3.594,0,-3.545,-3.5484,-3.5526,-3.5576,-3.5589,-3.5611,-3.5653,-3.5675,-3.57,-3.5735,-3.5745,-3.5784,-3.582,-3.585,-3.5897,-3.5911,-3.5948,-3.5954,-3.5936,-3.5939,-3.5952,-3.5951,-3.5985,-3.5992,-3.5974,-3.5975,-3.5975,0,-3.5459,-3.5482,-3.5535,-3.5556,-3.558,-3.5613,-3.5637,-3.567,-3.5693,-3.5738,-3.5756,-3.5794,-3.5826,-3.5883,-3.5914,-3.595,-3.5958,-3.5968,-3.5963,-3.5956,-3.5959,-3.5958,-3.5961,-3.5968,-3.5968,-3.5968,-3.5968,0,-3.547,-3.5487,-3.5521,-3.5562,-3.5591,-3.5624,-3.5657,-3.5673,-3.5712,-3.5738,-3.5776,-3.5801,-3.5851,-3.5889,-3.5929,-3.5951,-3.5966,-3.5969,-3.5975,-3.5968,-3.5957,-3.5965,-3.5938,-3.5968,-3.5968,-3.5968,-3.5968,-3.5968,-3.5474,-3.5497,-3.5538,-3.5576,-3.5606,-3.5637,-3.5662,-3.5692,-3.5725,-3.5769,-3.5786,-3.5826,-3.5863,-3.5919,-3.5942,-3.5973,-3.5975,-3.5982,-3.5984,-3.5986,-3.5985,-3.5952,-3.598,-3.598,-3.598,-3.598,-3.598,0,-3.5488,-3.5517,-3.5552,-3.56,-3.563,-3.5644,-3.5682,-3.5706,-3.5741,-3.5776,-3.5808,-3.5853,-3.5891,-3.5926,-3.5965,-3.5983,-3.5991,-3.5993,-3.5992,-3.5997,-3.5981,-3.5973,-3.5986,-3.5986,-3.5986,-3.5986,-3.5986,-3.5986,-3.5499,-3.5539,-3.556,-3.5615,-3.5643,-3.5684,-3.5705,-3.5734,-3.5762,-3.5812,-3.5845,-3.5868,-3.5904,-3.5946,-3.5981,-3.599,-3.6004,-3.6004,-3.6015,-3.5999,-3.5998,-3.5997,-3.599,-3.6006,-3.6006,-3.6029,-3.6029,-3.6029]}]]